Date,TemperatureHighF,TemperatureAvgF,TemperatureLowF,DewpointHighF,DewpointAvgF,DewpointLowF,HumidityHigh,HumidityAvg,HumidityLow,PressureMaxIn,PressureMinIn,WindSpeedMaxMPH,WindSpeedAvgMPH,GustSpeedMaxMPH,PrecipitationSumIn
2013-1-1,36,33,28,32,29,24,89,85,80,29.10,28.78,12,2,12,0.00
2013-1-2,37,32,26,32,28,23,90,84,79,29.10,28.86,12,1,12,0.00
2013-1-3,38,35,28,32,30,24,88,83,76,29.18,29.06,19,3,19,0.00
2013-1-4,29,28,28,26,26,25,89,89,87,29.30,29.18,0,0,0,0.00
2013-1-9,18,14,12,15,11,9,88,87,87,29.64,29.54,0,0,0,0.00
2013-1-10,25,21,18,22,19,15,91,89,88,29.76,29.55,0,0,0,0.00
2013-1-11,29,26,23,27,24,20,91,91,89,29.74,29.50,0,0,0,0.00
2013-1-12,33,31,25,31,29,23,93,92,91,29.62,29.46,2,0,2,0.47
2013-1-13,38,35,33,36,33,31,94,94,93,29.48,29.21,8,0,8,0.22
2013-1-14,38,35,29,36,31,20,94,87,65,29.58,29.11,23,2,23,0.12
2013-1-15,29,24,19,24,18,14,88,80,66,29.82,29.58,12,0,12,0.00
2013-1-16,23,23,22,20,20,18,88,88,87,29.79,29.71,0,0,0,0.00
2013-1-18,13,13,12,9,9,9,85,85,85,29.83,29.80,0,0,0,0.00
2013-1-19,25,19,12,21,16,8,87,86,85,29.83,29.50,20,5,20,0.00
2013-1-20,32,28,24,29,25,21,91,89,85,29.50,29.43,18,3,18,0.00
2013-1-21,31,25,15,28,22,12,92,89,87,29.45,29.26,10,2,10,0.00
2013-1-22,33,31,30,29,28,26,89,87,84,29.27,29.02,12,2,12,0.00
2013-1-23,40,27,23,36,24,20,91,88,80,29.02,28.88,8,0,8,0.00
2013-1-24,37,24,16,34,22,13,93,90,87,29.11,28.95,7,0,7,0.00
2013-1-25,33,18,-8,31,12,-13,92,78,63,29.29,28.93,21,2,21,0.00
2013-1-26,18,-9,-18,10,-15,-23,84,75,66,29.54,29.29,0,0,0,0.00
2013-1-27,14,-13,-22,5,-19,-28,83,73,64,29.79,29.54,1,0,1,0.00
2013-1-28,7,-2,-22,3,-8,-27,82,78,74,29.83,29.42,20,2,20,0.00
2013-1-29,14,10,7,10,6,2,85,82,80,29.46,29.35,25,5,25,0.00
2013-1-30,29,22,14,26,19,10,90,87,84,29.45,29.24,61,1,61,0.00
2013-1-31,34,31,28,32,29,26,92,91,90,29.55,29.30,1,0,1,0.00
2013-2-1,29,28,26,28,26,24,93,92,90,29.57,29.25,0,0,0,0.00
2013-2-2,48,32,28,41,29,26,94,91,75,29.26,28.92,9,1,9,0.02
2013-2-3,36,31,25,34,29,23,93,92,90,29.08,28.83,8,0,8,0.00
2013-2-4,29,24,20,27,22,18,93,91,90,29.18,29.08,0,0,0,0.00
2013-2-8,29,28,27,26,26,25,92,91,89,29.35,29.28,0,0,0,0.00
2013-2-9,49,35,28,40,31,26,93,87,66,29.28,28.55,15,2,15,0.02
2013-2-10,39,34,29,33,30,27,90,85,76,29.11,28.54,22,2,22,0.04
2013-2-11,43,24,16,27,16,9,89,73,46,29.35,29.11,16,2,16,0.00
2013-2-12,29,23,16,24,19,12,88,85,80,29.37,29.30,13,2,13,0.00
2013-2-13,34,26,18,29,22,15,90,87,82,29.42,29.19,0,0,0,0.00
2013-2-14,36,32,25,29,26,22,90,80,74,29.20,28.82,24,4,24,0.00
2013-2-15,39,24,6,28,19,2,90,81,62,29.54,29.11,13,1,13,0.00
2013-2-16,42,18,5,30,11,1,85,76,54,29.62,29.33,57,2,57,0.00
2013-2-17,27,23,20,23,19,16,88,85,83,29.40,29.19,57,4,57,0.00
2013-2-18,43,8,-8,28,2,-12,86,76,46,29.52,29.40,8,0,8,0.02
2013-2-19,17,11,0,13,6,-5,86,80,73,29.47,28.86,61,4,61,0.00
2013-2-20,29,22,17,22,17,13,86,83,75,28.86,28.68,14,1,14,0.00
2013-2-21,33,25,20,28,21,16,88,85,80,28.87,28.72,6,0,6,0.00
2013-2-22,43,23,10,26,15,3,89,73,43,29.04,28.82,15,2,15,0.00
2013-2-23,27,20,10,21,15,5,86,81,72,28.98,28.76,20,3,20,0.00
2013-2-24,33,26,16,28,23,12,90,85,80,29.22,28.94,7,0,7,0.00
2013-2-25,38,23,5,31,18,0,91,82,74,29.25,29.11,18,3,18,0.00
2013-2-26,53,32,27,32,22,18,81,67,42,29.13,28.86,19,6,19,0.00
2013-2-27,48,30,20,30,21,12,82,69,48,28.88,28.79,11,2,11,0.00
2013-2-28,40,31,25,32,25,20,84,79,67,29.01,28.87,8,0,8,0.00
2013-3-1,39,29,22,33,25,18,89,85,76,29.55,29.01,3,0,3,0.00
2013-3-2,50,28,21,38,24,18,91,84,56,29.66,29.55,8,0,8,0.02
2013-3-3,32,26,19,27,22,16,89,86,82,30.01,29.65,79,2,79,0.00
2013-3-4,44,33,27,34,26,21,86,77,66,30.04,29.91,9,1,9,0.00
2013-3-5,65,30,15,43,22,11,87,73,40,29.91,29.59,3,0,3,0.00
2013-3-6,42,29,19,32,23,15,84,76,61,29.59,29.45,10,1,10,0.00
2013-3-7,44,38,35,32,30,26,85,74,51,29.23,29.07,21,6,21,0.00
2013-3-8,64,37,26,41,28,22,86,71,40,29.35,29.09,11,1,11,0.00
2013-3-9,54,35,27,38,28,23,87,76,50,29.71,29.35,9,0,9,0.00
2013-3-10,37,31,27,31,27,22,88,82,73,29.83,29.68,19,1,19,0.00
2013-3-11,62,32,21,42,24,16,89,73,39,29.93,29.83,18,1,18,0.00
2013-3-12,51,27,13,21,11,5,73,52,30,29.86,29.60,27,6,27,0.00
2013-3-13,52,20,-1,21,4,-9,71,52,27,29.61,29.38,16,2,16,0.00
2013-3-14,36,22,14,18,11,7,75,64,47,29.48,29.38,17,4,17,0.00
2013-3-15,54,20,0,24,7,-6,81,59,28,29.45,29.32,32,1,32,0.00
2013-3-16,50,22,-6,22,5,-13,77,50,28,29.67,29.54,10,1,10,0.00
2013-3-17,62,27,-1,29,9,-9,77,50,25,29.77,29.67,9,0,9,0.00
2013-3-18,54,22,-2,25,6,-9,79,53,28,29.60,29.49,8,0,8,0.00
2013-3-19,45,15,-4,16,1,-11,77,55,27,29.56,29.49,21,2,21,0.00
2013-3-20,52,17,-4,22,0,-13,76,50,24,29.56,29.51,10,0,10,0.00
2013-3-21,54,25,-7,25,7,-15,75,48,28,29.78,29.55,3,0,3,0.00
2013-3-22,45,29,22,35,21,8,84,73,53,29.72,29.43,8,0,8,0.02
2013-3-23,58,33,24,35,23,17,85,68,41,29.46,29.39,14,2,14,0.00
2013-3-24,29,24,20,22,18,13,84,75,65,29.46,29.20,14,2,14,0.00
2013-3-25,33,23,17,20,15,7,85,73,51,29.20,29.03,20,3,20,0.00
2013-3-26,51,18,-10,25,5,-17,82,58,33,29.79,29.55,9,1,9,0.00
2013-3-27,36,12,-11,16,2,-18,76,64,40,29.86,29.78,12,2,12,0.00
2013-3-28,31,22,14,23,15,7,79,72,65,29.81,29.49,16,4,16,0.00
2013-3-29,52,39,29,35,28,24,80,65,50,29.56,29.41,17,3,17,0.02
2013-3-30,61,37,30,43,30,24,86,76,48,29.82,29.56,7,0,7,0.00
2013-3-31,66,35,21,44,27,17,89,74,39,29.86,29.73,10,1,10,0.00
2013-4-1,64,39,28,36,26,21,84,62,33,29.73,29.56,9,1,9,0.00
2013-4-2,68,38,20,38,24,15,84,60,28,29.76,29.62,8,0,8,0.00
2013-4-3,65,38,25,35,23,19,77,57,28,29.81,29.76,21,0,21,0.00
2013-4-4,57,33,20,29,19,13,81,59,30,29.80,29.38,14,2,14,0.00
2013-4-5,64,30,11,29,13,4,77,53,25,29.38,29.09,10,0,10,0.00
2013-4-6,54,29,19,31,16,10,72,60,39,29.14,29.05,9,1,9,0.00
2013-4-7,38,23,9,15,8,-1,70,54,36,29.41,29.14,21,4,21,0.00
2013-4-8,41,17,0,17,5,-7,76,60,37,29.40,29.03,11,1,11,0.00
2013-4-9,40,23,8,23,10,2,79,59,47,29.09,28.69,12,1,12,0.00
2013-4-10,35,16,0,15,5,-10,77,62,39,29.57,29.10,14,2,14,0.00
2013-4-11,42,17,0,17,4,-11,76,59,34,29.73,29.57,57,2,57,0.00
2013-4-12,13,5,0,2,-5,-16,71,61,32,29.75,29.73,0,0,0,0.00
2013-4-27,42,38,32,18,16,13,45,40,37,29.54,29.41,32,7,32,0.00
2013-4-28,61,39,23,27,16,8,62,41,26,29.78,29.54,17,3,18,0.00
2013-4-29,67,37,20,35,21,12,75,54,28,29.80,29.71,9,0,9,0.00
2013-4-30,45,35,25,36,26,17,83,71,50,29.71,29.41,8,1,8,0.06
2013-5-1,54,40,28,36,29,24,87,67,46,29.41,29.14,16,4,16,0.00
2013-5-2,47,38,32,40,32,25,87,78,71,29.46,29.25,8,1,8,0.02
2013-5-3,45,38,33,40,35,30,91,86,81,29.52,29.40,6,0,6,0.00
2013-5-4,46,38,30,39,32,25,90,81,64,29.55,29.37,8,1,8,0.06
2013-5-5,68,42,25,43,28,21,89,62,33,29.76,29.56,11,1,11,0.00
2013-5-6,65,41,28,37,27,20,78,58,32,29.87,29.76,14,1,14,0.00
2013-5-7,66,44,30,40,30,23,79,60,36,29.89,29.84,12,1,12,0.00
2013-5-8,70,46,27,41,30,22,84,57,32,29.89,29.81,15,3,15,0.00
2013-5-9,62,43,29,41,30,22,77,62,44,29.90,29.84,15,1,15,0.00
2013-5-10,65,47,26,41,32,21,83,58,38,29.85,29.55,11,2,11,0.00
2013-5-11,58,48,40,46,39,34,85,71,53,29.54,29.19,15,1,15,0.02
2013-5-12,60,48,38,45,40,34,88,75,54,29.19,29.08,9,1,9,0.00
2013-5-13,64,48,36,46,35,22,89,64,39,29.10,29.02,17,2,17,0.00
2013-5-14,70,44,30,36,25,19,68,49,28,29.26,29.08,16,2,16,0.00
2013-5-15,63,42,25,35,26,18,79,56,35,29.36,29.26,12,1,12,0.00
2013-5-16,42,39,36,37,33,26,87,80,61,29.33,29.05,75,3,75,0.00
2013-5-17,48,39,33,42,35,30,90,84,73,29.15,29.01,9,2,9,0.02
2013-5-18,53,36,28,34,25,17,87,66,45,29.79,29.15,59,2,59,0.00
2013-5-19,66,42,20,34,22,14,81,49,25,30.22,29.79,12,2,12,0.00
2013-5-20,74,45,22,37,24,15,76,49,25,30.27,30.17,11,1,11,0.00
2013-5-21,72,50,35,44,35,25,77,56,36,30.18,29.88,10,1,10,0.00
2013-5-22,62,47,34,44,37,27,82,69,48,29.88,29.72,8,1,8,0.00
2013-5-23,64,50,42,50,41,34,87,73,56,29.77,29.70,7,1,7,0.00
2013-5-24,83,60,39,51,41,33,83,54,30,29.72,29.57,12,2,12,0.00
2013-5-25,87,57,32,51,38,25,80,54,25,29.62,29.51,12,1,12,0.00
2013-5-26,70,47,29,48,37,24,85,71,44,29.56,29.48,8,0,8,0.05
2013-5-27,86,60,43,56,45,36,88,60,33,29.51,29.37,17,2,17,0.00
2013-5-28,90,63,32,54,41,26,84,50,27,29.41,29.24,15,2,15,0.00
2013-5-29,98,66,38,57,42,30,77,47,23,29.37,29.26,15,2,15,0.00
2013-5-30,90,62,38,54,41,31,77,51,28,29.63,29.37,15,2,15,0.00
2013-5-31,76,51,36,53,39,29,85,67,41,29.72,29.63,8,1,8,0.00
2013-6-1,61,53,46,47,43,40,83,70,57,29.84,29.78,8,1,8,0.02
2013-6-2,66,52,45,50,42,36,87,71,49,29.85,29.68,10,1,10,0.06
2013-6-3,62,53,44,45,39,36,75,61,47,29.68,29.34,12,2,12,0.00
2013-6-4,68,52,39,46,40,33,79,65,43,29.46,29.28,11,2,11,0.00
2013-6-5,77,51,29,50,37,24,87,61,36,29.57,29.46,13,1,13,0.00
2013-6-6,82,60,35,47,37,28,77,46,27,29.56,29.31,19,4,19,0.00
2013-6-7,91,63,36,51,40,28,74,45,25,29.54,29.32,18,2,18,0.00
2013-6-8,90,66,42,52,43,32,71,45,27,29.72,29.54,12,2,12,0.00
2013-6-9,95,68,41,54,43,33,76,45,23,29.81,29.72,17,2,17,0.00
2013-6-10,94,66,40,56,44,31,74,47,27,29.86,29.73,12,2,12,0.00
2013-6-11,91,66,41,55,44,33,75,47,26,29.76,29.60,15,2,15,0.00
2013-6-12,96,68,40,57,43,31,73,44,21,29.63,29.54,12,2,12,0.00
2013-6-13,89,62,41,54,43,33,76,52,31,29.78,29.60,15,2,15,0.00
2013-6-14,91,72,36,57,48,30,81,45,30,29.88,29.81,10,2,10,0.00
2013-6-15,92,65,38,58,46,31,78,54,31,29.94,29.84,10,1,10,0.00
2013-6-16,98,69,40,61,48,33,78,51,27,29.86,29.72,8,1,8,0.00
2013-6-17,102,75,47,60,50,38,73,46,25,29.74,29.47,21,1,21,0.00
2013-6-18,101,73,50,64,50,42,74,48,28,29.54,29.40,12,2,12,0.00
2013-6-19,82,63,47,52,45,37,74,53,35,29.62,29.46,21,2,21,0.00
2013-6-20,79,59,42,54,45,34,79,62,41,29.66,29.59,11,2,11,0.00
2013-6-21,78,54,42,53,43,36,82,66,41,29.72,29.66,8,1,8,0.00
2013-6-22,80,57,38,54,42,32,83,62,40,29.68,29.41,10,2,10,0.00
2013-6-23,82,64,49,56,48,44,86,59,34,29.35,29.25,11,2,11,0.02
2013-6-24,84,64,49,58,49,42,84,61,40,29.30,29.24,12,1,12,0.00
2013-6-25,87,71,44,58,52,37,80,52,37,29.24,29.21,6,1,6,0.00
2013-6-26,98,76,51,62,55,45,79,50,28,29.50,29.22,12,2,12,0.02
2013-6-27,86,65,51,61,52,46,86,66,41,29.66,29.50,11,2,11,0.00
2013-6-28,64,58,53,54,50,46,80,76,69,29.80,29.76,7,0,7,0.00
2013-6-29,78,64,51,58,52,46,87,68,48,29.77,29.61,7,1,7,0.00
2013-6-30,65,58,52,51,48,45,77,71,60,29.66,29.47,5,0,5,0.00
2013-7-1,60,53,48,50,45,40,89,75,56,29.48,29.18,29,2,29,0.06
2013-7-2,70,55,47,51,45,40,83,69,49,29.51,29.19,17,1,17,0.04
2013-7-3,73,53,46,54,46,42,88,77,49,29.64,29.51,8,1,8,0.00
2013-7-4,57,51,47,50,46,44,89,83,75,29.68,29.61,7,0,7,0.12
2013-7-5,66,60,53,54,49,45,79,67,55,29.68,29.63,7,1,7,0.00
2013-7-6,66,59,49,52,49,46,88,69,58,29.59,29.37,13,2,13,0.00
2013-7-7,70,59,52,53,50,47,83,71,55,29.29,29.19,11,2,11,0.09
2013-7-8,77,62,44,56,50,42,91,68,47,29.41,29.35,11,1,11,0.06
2013-7-9,83,68,42,58,50,38,89,57,38,29.63,29.52,12,2,12,0.00
2013-7-10,91,73,56,61,51,47,75,48,33,29.66,29.55,12,1,12,0.00
2013-7-11,92,69,45,60,50,39,83,54,34,29.58,29.51,10,1,10,0.00
2013-7-12,98,79,46,62,53,39,80,43,29,29.58,29.52,13,2,13,0.00
2013-7-13,89,71,48,60,52,42,80,53,35,29.75,29.62,13,2,13,0.00
2013-7-14,85,66,49,59,51,44,85,60,40,29.94,29.89,9,2,9,0.00
2013-7-15,74,58,42,57,48,37,84,72,53,29.97,29.87,9,1,9,0.00
2013-7-16,83,64,53,60,52,47,84,68,47,29.87,29.76,11,1,11,0.00
2013-7-17,77,70,52,61,57,48,87,64,56,29.73,29.67,13,2,13,0.00
2013-7-18,84,71,51,64,58,47,86,62,49,29.77,29.72,18,3,18,0.00
2013-7-19,88,69,59,59,53,47,76,58,36,29.80,29.74,19,5,19,0.00
2013-7-20,93,68,52,60,50,45,80,56,31,29.77,29.67,25,2,25,0.00
2013-7-21,91,66,43,57,47,36,80,53,28,29.70,29.57,16,3,16,0.00
2013-7-22,97,80,51,58,51,42,72,39,26,29.69,29.66,17,2,17,0.00
2013-7-23,92,75,54,62,54,46,76,50,36,29.73,29.65,6,1,6,0.00
2013-7-24,101,71,45,64,51,38,81,54,28,29.66,29.55,9,1,10,0.00
2013-7-25,96,76,62,66,58,53,74,57,37,29.69,29.60,10,2,10,0.00
2013-7-26,73,63,58,61,56,53,87,79,65,29.87,29.68,6,0,6,0.04
2013-7-27,78,65,51,62,56,48,88,76,57,29.97,29.94,4,0,4,0.00
2013-7-28,76,72,67,60,58,56,67,61,58,29.79,29.78,7,1,7,0.00
2013-7-29,95,70,47,66,56,43,85,63,37,29.81,29.75,9,1,9,0.00
2013-7-30,94,67,46,66,54,41,84,65,38,29.83,29.78,11,1,11,0.00
2013-7-31,90,64,48,64,53,42,83,69,41,29.83,29.75,11,1,11,0.00
2013-8-1,88,63,50,63,53,45,85,71,42,29.76,29.58,9,1,9,0.00
2013-8-2,87,64,53,59,52,49,88,68,37,29.62,29.42,20,2,20,0.02
2013-8-3,82,64,53,56,50,45,78,61,37,29.52,29.33,18,3,18,0.00
2013-8-4,75,58,50,57,50,45,86,75,49,29.60,29.51,7,0,7,0.00
2013-8-5,77,60,52,58,52,48,89,76,49,29.60,29.56,8,1,8,0.04
2013-8-6,66,62,57,51,50,48,71,63,59,29.53,29.46,15,4,15,0.00
2013-8-7,78,62,56,57,50,47,76,65,45,29.46,29.36,14,3,14,0.00
2013-8-8,67,58,51,56,49,44,88,73,63,29.44,29.35,8,1,8,0.02
2013-8-9,66,56,49,55,51,46,90,82,63,29.33,29.28,12,2,12,0.06
2013-8-10,76,60,49,59,52,46,92,75,53,29.61,29.40,8,1,8,0.00
2013-8-11,58,54,48,55,52,45,93,91,88,29.64,29.59,12,2,12,0.33
2013-8-12,65,62,59,59,58,55,88,85,82,29.64,29.63,4,0,4,0.08
2013-8-13,71,60,51,61,54,48,93,81,69,29.64,29.60,9,1,9,0.02
2013-8-14,65,59,50,53,51,47,89,75,63,29.65,29.52,4,0,4,0.00
2013-8-15,86,62,38,61,51,35,90,68,42,29.48,29.38,8,1,8,0.00
2013-8-16,58,53,46,54,49,42,92,86,78,29.39,29.23,8,1,8,0.02
2013-8-17,67,58,53,58,54,50,93,86,70,29.24,29.11,11,2,11,0.00
2013-8-18,65,58,53,59,53,50,92,86,77,29.28,29.10,7,0,7,0.08
2013-8-19,57,54,53,54,52,50,92,89,85,29.39,29.27,5,0,5,0.13
2013-8-20,81,57,50,63,52,48,93,84,51,29.47,29.38,9,0,9,0.02
2013-8-21,57,54,51,54,51,47,92,90,85,29.49,29.37,7,0,7,0.50
2013-8-22,58,54,52,56,52,49,94,93,91,29.38,29.30,6,0,6,0.31
2013-8-23,83,60,49,63,53,47,94,78,47,29.31,29.14,9,0,9,0.00
2013-8-24,83,64,41,61,46,38,93,55,33,29.32,29.25,16,3,16,0.00
2013-8-25,88,58,33,55,42,29,89,60,29,29.37,29.29,7,1,7,0.00
2013-8-26,83,54,34,58,42,30,88,68,35,29.38,29.32,9,0,9,0.00
2013-8-27,79,58,49,56,49,44,86,71,43,29.42,29.35,8,1,8,0.00
2013-8-28,70,57,50,53,48,44,90,72,52,29.35,29.15,12,1,12,0.02
2013-8-29,55,53,51,53,50,49,93,92,90,29.48,29.12,20,6,20,0.08
2013-8-30,64,56,51,57,52,48,94,88,74,29.58,29.47,5,0,5,0.00
2013-8-31,62,56,47,53,50,45,92,84,71,29.52,29.44,25,0,25,0.02
2013-9-1,63,58,49,54,52,46,91,80,72,29.44,29.36,7,0,7,0.00
2013-9-2,62,56,51,58,53,49,93,89,84,29.29,29.14,7,0,7,0.16
2013-9-3,72,60,52,57,49,45,84,68,54,29.01,28.89,61,3,61,0.00
2013-9-4,60,55,47,53,49,44,92,79,63,29.34,29.07,20,3,20,0.02
2013-9-5,64,52,40,54,45,37,91,79,58,29.62,29.50,8,0,8,0.00
2013-9-6,53,49,46,48,46,44,92,89,85,29.39,29.01,28,8,28,0.00
2013-9-7,62,53,48,58,50,46,94,91,79,29.26,29.03,14,1,14,0.14
2013-9-8,72,57,47,55,46,43,93,70,47,29.44,29.12,16,3,19,0.00
2013-9-9,64,55,51,50,46,43,87,72,58,29.44,29.21,16,3,16,0.02
2013-9-10,59,53,50,55,50,47,93,90,87,29.36,29.28,7,0,7,0.17
2013-9-11,66,54,49,57,49,45,94,85,66,29.52,29.22,21,1,21,0.22
2013-9-12,57,49,38,49,43,35,92,80,65,29.60,29.50,12,1,12,0.00
2013-9-13,72,54,47,56,47,43,89,77,54,29.51,29.46,12,2,12,0.00
2013-9-14,79,60,47,58,49,45,93,70,41,29.52,29.46,14,2,14,0.00
2013-9-15,84,55,33,54,42,30,92,65,33,29.50,29.34,8,0,8,0.00
2013-9-16,40,32,29,35,28,25,88,85,81,29.34,29.23,0,0,0,0.00
2013-10-8,44,40,37,41,37,34,91,90,88,28.72,28.69,12,3,12,0.00
2013-10-9,61,42,30,43,33,24,91,73,41,29.35,28.72,59,3,59,0.00
2013-10-10,41,35,28,38,31,24,91,86,81,29.35,29.28,6,0,6,0.02
2013-10-11,53,43,38,49,40,36,92,89,81,29.47,29.31,2,0,2,0.04
2013-10-12,53,47,41,43,39,37,91,75,63,29.45,29.19,24,4,24,0.00
2013-10-13,57,44,40,50,40,32,91,83,69,29.29,29.07,22,2,22,0.32
2013-10-14,56,41,31,49,37,29,94,88,74,29.67,29.30,2,0,2,0.00
2013-10-15,49,44,40,47,42,37,93,92,90,29.74,29.60,4,0,4,0.02
2013-10-16,54,47,42,49,43,37,93,86,74,29.86,29.73,13,1,13,0.02
2013-10-17,58,48,40,42,39,36,89,72,55,29.73,29.34,25,4,25,0.00
2013-10-18,56,48,41,44,38,36,82,69,61,29.39,29.25,20,3,20,0.00
2013-10-19,58,46,38,50,38,32,87,73,62,29.22,28.96,8,0,8,0.02
2013-10-20,60,45,38,45,36,34,84,72,55,29.51,29.39,6,0,6,0.00
2013-10-21,59,42,29,49,34,26,91,76,59,29.64,29.59,10,1,10,0.00
2013-10-22,65,40,28,47,32,23,86,74,47,29.80,29.66,6,0,6,0.00
2013-10-23,61,37,0,44,31,-3,89,78,46,29.66,29.36,9,1,9,0.00
2013-10-24,45,40,28,36,33,25,87,76,69,29.38,29.21,22,5,22,0.00
2013-10-25,61,38,25,46,31,22,91,76,56,29.68,29.44,3,0,3,0.00
2013-10-26,53,34,25,43,29,21,90,83,65,30.04,29.92,9,2,9,0.00
2013-10-27,46,41,38,44,38,35,93,90,80,29.75,29.16,15,5,17,0.04
2013-10-28,50,46,41,46,43,37,93,90,86,29.17,28.85,20,4,20,0.86
2013-10-29,63,41,32,51,36,29,93,82,59,29.19,28.92,12,2,12,0.00
2013-10-30,56,42,38,43,36,34,86,78,57,28.92,28.66,18,5,18,0.00
2013-10-31,49,40,36,45,37,33,91,87,81,29.24,28.76,6,0,6,0.04
2013-11-1,44,40,37,41,37,34,92,90,85,29.59,29.24,4,0,4,0.00
2013-11-2,41,36,0,36,32,-2,91,87,73,29.55,29.37,10,2,10,0.00
2013-11-3,49,45,42,37,35,33,70,67,62,29.35,29.12,11,3,11,0.00
2013-11-4,42,36,0,34,30,0,83,78,70,29.13,28.92,17,3,17,0.00
2013-11-5,41,38,30,35,32,24,84,78,74,29.48,29.34,0,0,0,0.00
2013-11-6,46,23,0,37,17,-6,91,79,58,29.69,29.52,57,0,57,0.00
2013-11-7,30,25,20,22,19,14,85,78,68,29.52,29.37,16,2,16,0.00
2013-11-8,46,20,12,33,14,7,90,79,57,29.83,29.49,0,0,0,0.00
2013-11-9,28,24,12,25,20,8,89,86,82,29.83,29.69,6,1,6,0.00
2013-11-10,40,37,32,37,34,30,92,92,91,29.50,29.32,11,1,11,0.31
2013-11-11,32,25,22,30,22,19,92,90,88,29.68,29.55,0,0,0,0.00
2013-11-12,7,3,2,3,-1,-2,85,83,83,29.74,29.71,0,0,0,0.00
2013-11-14,32,30,27,30,28,25,92,92,91,29.65,29.49,7,1,7,0.00
2013-11-15,28,22,14,26,20,11,92,90,88,29.66,29.55,3,0,3,0.00
2013-11-16,27,13,3,24,10,-1,91,86,82,29.86,29.62,12,1,12,0.00
2013-11-17,20,5,-5,16,0,-10,88,82,78,29.89,29.82,10,0,10,0.00
2013-11-18,13,-4,-10,8,-8,-15,86,81,79,29.85,29.79,0,0,0,0.00
2013-11-19,7,-5,-14,2,-10,-19,84,81,78,29.80,29.61,0,0,0,0.00
2013-11-20,8,2,-4,4,-2,-9,84,82,81,29.70,29.59,14,2,14,0.00
2013-11-21,19,9,-2,16,5,-6,87,82,75,29.59,28.77,24,7,24,0.00
2013-11-22,28,21,12,25,17,8,89,85,73,29.10,28.73,16,2,16,0.00
2013-11-23,31,21,10,28,17,6,90,87,73,29.58,29.10,11,1,11,0.00
2013-11-24,31,26,21,28,24,18,91,90,89,29.64,29.58,0,0,0,0.00
2013-11-25,27,25,24,25,23,22,91,91,91,29.47,29.35,0,0,0,0.00
2013-12-16,-12,-16,-18,-17,-21,-24,79,78,77,29.78,29.75,0,0,0,0.00
2013-12-17,0,-18,-22,-6,-23,-27,79,77,76,30.02,29.78,0,0,0,0.00
2013-12-18,12,1,-14,9,-3,-19,87,83,78,30.03,29.33,0,0,0,0.00
2013-12-19,14,10,3,11,7,0,88,86,84,29.36,29.30,0,0,8,0.00
2013-12-21,32,32,31,30,30,30,94,93,93,29.14,29.07,0,0,0,0.00
2013-12-22,31,30,28,30,28,26,94,93,93,29.14,29.01,0,0,0,0.00
2013-12-23,2,-2,-8,-2,-6,-12,85,83,81,29.72,29.49,0,0,0,0.00
2013-12-24,-5,-9,-13,-9,-14,-18,82,81,80,29.73,29.42,0,0,0,0.00
2013-12-25,-11,-14,-17,-15,-19,-22,80,79,78,29.43,29.36,0,0,0,0.00
2013-12-26,-6,-13,-17,-10,-18,-22,82,79,77,29.43,29.33,0,0,0,0.00
2013-12-27,15,-3,-17,12,-7,-22,88,82,77,29.56,29.42,0,0,0,0.00
2013-12-28,21,17,14,18,14,11,90,89,88,29.56,29.51,0,0,0,0.00
2013-12-29,18,16,13,15,13,10,90,89,87,29.58,29.33,0,0,2,0.00
2013-12-30,20,12,3,17,8,-1,90,87,84,29.22,29.08,0,0,0,0.00
2013-12-31,28,16,2,25,13,-2,92,88,84,29.24,28.81,0,0,0,0.00
2014-1-1,34,31,24,32,29,22,94,93,91,29.11,28.70,6,0,6,0.00
2014-1-2,30,26,20,29,24,18,93,92,90,29.66,29.11,2,0,2,0.00